Flag for Germany Weather past 2 weeks in Homberg (Efze), Hesse, Germany

Now
23 °F

Passing clouds.


Feels Like: 17 °F
Forecast: 17 / 36 °F
Wind: 5 mph from Northeast

Location: Fritzlar

Current Time: Dec 28, 2014 at 5:36:53 AM

Latest Report: Dec 28, 2014 at 5:00 AM


Visibility: 13 mi

Pressure: 29.95 "Hg

Humidity: 73%

Dew point: 16 °F

Location of Homberg (Efze)Location

Historic Weather in Homberg (Efze) — Graph

°F

Homberg (Efze) temperature yesterday

Maximum temperature yesterday: 33 °F (at 8:00 AM)
Minimum temperature yesterday: 26 °F (at 12:00 AM)
Average temperature yesterday: 30 °F

Past Weeks' High & Low Weather Summary

 TemperatureHumidityPressure
High56 °F (Dec 18, 9:00 PM)97% (Dec 13, 11:00 PM)30.41 "Hg (Dec 13, 11:00 PM)
Low25 °F (Dec 28, 4:00 AM)62% (Dec 27, 8:00 PM)29.58 "Hg (Dec 27, 2:00 PM)
Average41 °F85%30.02 "Hg
* Reported Dec 13 4:00 AM — Dec 28 4:00 AM, Homberg (Efze), Weather by CustomWeather, © 2014

Note: Actual official high and low records may vary slightly from our data, if they occured in-between our weather recording intervals... More about our weather records

Advertising

Homberg (Efze) weather history for previous 24 hours

 ConditionsComfort  
Time TempWeatherWind HumidityBarometerVisibility
4:00 AM
Dec 28
25 °FPassing clouds.7 mph70%29.91 "Hg12 mi
3:00 AM26 °FOvercast.5 mph68%29.87 "Hg11 mi
2:00 AM27 °FOvercast.6 mph65%29.83 "Hg11 mi
1:00 AM27 °FOvercast.5 mph67%29.80 "Hg11 mi
12:00 AM27 °FOvercast.5 mph66%29.78 "Hg11 mi
11:00 PM
Dec 27
28 °FOvercast.5 mph68%29.74 "Hg11 mi
10:00 PM28 °FOvercast.6 mph68%29.71 "Hg12 mi
9:00 PM29 °FOvercast.6 mph65%29.67 "Hg12 mi
8:00 PM30 °FOvercast.6 mph62%29.64 "Hg12 mi
7:00 PM30 °FOvercast.5 mph63%29.62 "Hg12 mi
6:00 PM31 °FOvercast.6 mph63%29.61 "Hg12 mi
5:00 PM31 °FOvercast.6 mph64%29.59 "Hg12 mi
4:00 PM30 °FSnow. Overcast.6 mph87%29.59 "Hg2 mi
3:00 PM30 °FSnow. Overcast.7 mph86%29.59 "Hg2 mi
2:00 PM33 °FSnow flurries. Overcast.7 mph78%29.58 "Hg6 mi
1:00 PM32 °FOvercast.3 mph87%29.60 "Hg4 mi
12:00 PM32 °FLight snow. Overcast.5 mph86%29.62 "Hg4 mi
11:00 AM32 °FChilly.3 mph86%29.65 "Hg2 mi
10:00 AM33 °FChilly.7 mph81%29.67 "Hg11 mi
9:00 AM32 °FChilly.8 mph82%29.70 "Hg11 mi
8:00 AM33 °FChilly.6 mph84%29.75 "Hg11 mi
7:00 AM32 °FChilly.5 mph87%29.80 "Hg11 mi
6:00 AM31 °FChilly.3 mph89%29.86 "Hg11 mi
5:00 AM28 °FChilly.N/A92%29.93 "Hg5 mi
Weather by CustomWeather, © 2014

See weather overviewHow to use our weather pages